{"data":{"norad_id":56451,"epoch":"2026-05-24T20:59:53.780064Z","epoch_age_seconds":85551,"freshness":"FRESH","line1":"1 56451U 23064D   26144.87492801  .00000754  00000+0  70970-4 0  9994","line2":"2 56451  69.9987 312.5344 0003071 266.1758  93.9050 14.98341236166650","mean_motion":14.98341236,"eccentricity":0.0003071,"inclination_deg":69.9987,"raan_deg":312.5344,"arg_perigee_deg":266.1758,"mean_anomaly_deg":93.905,"bstar":7.097e-5,"rev_number":16665,"period_min":96.106278423215,"perigee_km":569.88675119216,"apogee_km":574.15553832467,"semimajor_km":6950.1581447584,"source":"CELESTRAK","updated_at":"2026-05-25T13:38:18.066299Z"}}